TimeEDT,TemperatureF,Dew PointF,Humidity,Sea Level PressureIn,VisibilityMPH,Wind Direction,Wind SpeedMPH,Gust SpeedMPH,PrecipitationIn,Events,Conditions,WindDirDegrees,DateUTC
12:53 AM,66.0,64.9,96,29.93,6.0,East,6.9,-,0.00,,Overcast,100,2012-08-11 04:53:00
1:32 AM,66.2,64.4,94,29.93,5.0,ESE,5.8,-,0.02,Rain,Light Rain,110,2012-08-11 05:32:00
1:53 AM,66.0,64.9,96,29.93,5.0,East,3.5,-,0.03,Rain,Light Rain,90,2012-08-11 05:53:00
2:31 AM,66.2,64.4,94,29.91,5.0,ENE,5.8,-,0.00,Rain,Light Rain,60,2012-08-11 06:31:00
2:51 AM,66.2,64.4,94,29.91,5.0,NE,5.8,-,0.01,Rain,Light Rain,50,2012-08-11 06:51:00
2:53 AM,66.0,64.9,96,29.90,5.0,NE,5.8,-,0.01,Rain,Light Rain,40,2012-08-11 06:53:00
3:43 AM,66.2,64.4,94,29.90,4.0,NE,6.9,-,0.03,Rain,Light Rain,50,2012-08-11 07:43:00
3:50 AM,66.2,66.2,100,29.89,2.5,NE,6.9,-,0.03,Rain,Light Rain,50,2012-08-11 07:50:00
3:53 AM,66.0,66.0,100,29.89,2.5,NE,6.9,-,0.03,Rain,Light Rain,50,2012-08-11 07:53:00
4:53 AM,66.0,66.0,100,29.88,3.0,ENE,6.9,-,0.03,,Overcast,70,2012-08-11 08:53:00
5:45 AM,66.2,64.4,94,29.88,2.0,ENE,9.2,-,0.02,Rain,Light Rain,60,2012-08-11 09:45:00
5:53 AM,66.0,64.9,96,29.87,2.0,ENE,8.1,-,0.02,Rain,Light Rain,60,2012-08-11 09:53:00
6:53 AM,66.0,64.9,96,29.88,1.5,ENE,6.9,-,0.00,Rain,Light Rain,60,2012-08-11 10:53:00
7:53 AM,66.0,66.0,100,29.89,2.0,East,4.6,-,0.02,,Overcast,80,2012-08-11 11:53:00
8:35 AM,66.2,66.2,100,29.90,7.0,East,10.4,-,0.01,,Overcast,80,2012-08-11 12:35:00
8:53 AM,66.9,66.0,97,29.89,8.0,East,8.1,-,0.01,Rain,Light Rain,90,2012-08-11 12:53:00
9:53 AM,68.0,66.9,96,29.90,10.0,East,8.1,-,0.00,,Overcast,90,2012-08-11 13:53:00
10:51 AM,68.0,66.2,94,29.92,2.0,East,5.8,-,0.00,Rain,Light Rain,100,2012-08-11 14:51:00
10:53 AM,68.0,66.9,96,29.91,2.0,East,3.5,-,0.00,Rain,Light Rain,90,2012-08-11 14:53:00
11:53 AM,69.1,68.0,96,29.91,4.0,East,6.9,-,0.00,Rain,Light Rain,90,2012-08-11 15:53:00
12:53 PM,70.0,68.0,93,29.91,10.0,NE,4.6,-,0.00,,Overcast,50,2012-08-11 16:53:00
1:53 PM,70.0,68.0,93,29.91,4.0,NE,5.8,-,0.00,Rain,Light Rain,40,2012-08-11 17:53:00
2:02 PM,69.8,68.0,94,29.91,1.5,NE,8.1,-,0.00,Rain,Light Rain,50,2012-08-11 18:02:00
2:32 PM,69.8,68.0,94,29.92,1.5,NNE,4.6,-,0.00,Rain,Light Rain,30,2012-08-11 18:32:00
2:41 PM,69.8,68.0,94,29.92,3.0,NNE,5.8,-,0.00,Rain,Light Rain,30,2012-08-11 18:41:00
2:53 PM,70.0,68.0,93,29.91,3.0,North,5.8,-,0.00,Rain,Light Rain,10,2012-08-11 18:53:00
3:03 PM,69.8,68.0,94,29.93,1.2,North,8.1,-,0.00,Rain,Light Rain,10,2012-08-11 19:03:00
3:53 PM,69.1,68.0,96,29.92,1.5,NNE,8.1,-,0.00,Rain,Light Rain,20,2012-08-11 19:53:00
4:27 PM,69.8,66.2,88,29.93,1.5,NNE,5.8,-,0.00,Rain,Light Rain,20,2012-08-11 20:27:00
4:53 PM,69.1,66.9,93,29.93,9.0,NNE,4.6,-,0.00,Rain,Light Rain,20,2012-08-11 20:53:00
5:53 PM,69.1,66.9,93,29.94,10.0,NNE,6.9,-,0.00,,Overcast,20,2012-08-11 21:53:00
6:53 PM,68.0,66.9,96,29.94,9.0,NNE,5.8,-,N/A,,Overcast,30,2012-08-11 22:53:00
7:15 PM,68.0,66.2,94,29.96,2.0,North,6.9,-,N/A,,Overcast,10,2012-08-11 23:15:00
7:39 PM,68.0,66.2,94,29.96,1.0,North,8.1,-,N/A,,Overcast,10,2012-08-11 23:39:00
7:53 PM,66.9,66.9,100,29.95,1.0,NNE,5.8,-,N/A,,Overcast,20,2012-08-11 23:53:00
8:53 PM,66.9,66.9,100,29.96,1.0,NE,4.6,-,N/A,,Overcast,40,2012-08-12 00:53:00
9:07 PM,66.2,66.2,100,29.96,0.8,NNE,3.5,-,N/A,,Overcast,20,2012-08-12 01:07:00
9:53 PM,66.9,66.9,100,29.97,0.5,Calm,Calm,-,0.00,Fog-Rain,Light Rain,0,2012-08-12 01:53:00
10:15 PM,66.2,66.2,100,29.97,1.5,Calm,Calm,-,0.00,Rain,Light Rain,0,2012-08-12 02:15:00
10:53 PM,66.9,66.9,100,29.96,1.5,North,3.5,-,0.00,,Overcast,360,2012-08-12 02:53:00
11:39 PM,66.2,66.2,100,29.97,0.8,North,4.6,-,N/A,,Overcast,350,2012-08-12 03:39:00
11:53 PM,66.9,66.9,100,29.97,0.8,Calm,Calm,-,N/A,,Overcast,0,2012-08-12 03:53:00